Regional Weather Roundup
Issued by NWS

Home | Current Version | Previous Version | Graphics & Text | Print | Product List | Glossary On
Versions: 1 2 3 4 5 6 7 8 9 10 11 12 13 14 15 16 17 18 19 20 21 22 23 24 25 26 27 28
000
ASUS45 KCYS 171510
RWRWY

WYOMING REGIONAL WEATHER ROUNDUP
NATIONAL WEATHER SERVICE CHEYENNE WY
800 AM MST SUN DEC 17 2017

NOTE:  "FAIR" INDICATES FEW OR NO CLOUDS BELOW 12,000 FEET
WITH NO SIGNIFICANT WEATHER AND/OR OBSTRUCTIONS TO VISIBILITY.

WYZ001-171600-
YELLOWSTONE NATIONAL PARK

CITY           SKY/WX    TMP DP  RH WIND       PRES   REMARKS
LK YELLOWSTONE   N/A      0  -4  83 CALM      30.04S
W YELLOWSTONE  NOT AVBL

$$
WYZ002>013-054>058-071-098>099-171600-
NORTHERN WYOMING

CITY           SKY/WX    TMP DP  RH WIND       PRES   REMARKS
JACKSON        CLOUDY     5   3  92 NE6       30.08R WCI  -6
CODY           FLURRIES  29  11  47 W21G37    29.89S WCI  16
GREYBULL       CLOUDY    20  19  96 S3        29.97F
WORLAND        FAIR      11  10  96 S7        29.97S WCI   0
SHERIDAN       FOG       21  19  92 W5        29.91F VSB 1/4 WCI  15
BUFFALO        CLOUDY    20  14  77 CALM      29.86F
GILLETTE       MOCLDY    26  23  88 S13       29.90F WCI  15
HULETT         PTSUNNY   28  25  86 S10       29.93F WCI  19
NEWCASTLE      CLOUDY    27  27 100 SE3       30.00S

$$
WYZ014>020-022>026-101>103-171600-
CENTRAL WYOMING

CITY           SKY/WX    TMP DP  RH WIND       PRES   REMARKS
BIG PINEY      FAIR       6   2  83 NE7       30.04R WCI  -6
PINEDALE       FAIR       9   5  85 W8        30.03S WCI  -4
DUBOIS         FAIR      18   9  68 NW21G28   29.93S WCI   1
LANDER         FAIR      18  13  80 SW8       29.93F WCI   8
RIVERTON       FAIR      18  16  92 SW10      29.94F WCI   6
CASPER         FAIR      20  16  84 W14       29.95F WCI   7
DOUGLAS        CLOUDY    27  24  89 CALM      29.96F

$$
WYZ021-027>030-104>119-171600-
SOUTHERN WYOMING

CITY           SKY/WX    TMP DP  RH WIND       PRES   REMARKS
EVANSTON       LGT SNOW  17  15  92 W3        30.09F FOG
FORT BRIDGER   FAIR      18  16  93 W13       30.10R WCI   4
ROCK SPRINGS   CLOUDY    19  13  77 W28       30.03R WCI   1
DIXON          FLURRIES  24  18  80 E5        30.07S WCI  18
RAWLINS        CLOUDY    25  21  85 W10       29.97F WCI  15
SARATOGA       FLURRIES  21  21 100 SE6       30.00S WCI  14
LARAMIE        FOG       17  16  95 CALM      29.94S VSB<1/4
CHEYENNE       MOCLDY    25  24  96 SW7       29.96S WCI  17
TORRINGTON     CLOUDY    28  28 100 S7        30.00F WCI  21
PINE BLUFFS    CLOUDY    28  28 100 MISG      30.01R

$$




USA.gov is the U.S. government's official web portal to all federal, state and local government web resources and services.